Saint Martin Island, Sint Maarten

2:41 PM AST on February 26, 2017 (GMT -0400)
Princess Juliana International

Weather History for TNCM - April, 2014

Change the Weather History Date:

Tuesday, April 29, 2014

  Actual Average Record
Temperature  
Mean Temperature 81 °F -  
Max Temperature 84 °F 84 °F 87 °F (2001)
Min Temperature 78 °F 75 °F 73 °F (2002)
Cooling Degree Days 16    
Growing Degree Days 31 (Base 50)    
Moisture  
Dew Point 70 °F    
Average Humidity 67    
Maximum Humidity 74    
Minimum Humidity 54    
Precipitation  
Precipitation 0.00 in 0.12 in - ()
Sea Level Pressure  
Sea Level Pressure 30.01 in    
Wind  
Wind Speed 9 mph ()    
Max Wind Speed 13 mph    
Max Gust Speed -    
Visibility 7.6 miles    
Events      
Averages and records for this station are not official NWS values.
T = Trace of Precipitation, MM = Missing Value Source: Averaged Metar Reports

Daily Weather History Graph

Daily Weather History Graph

Search for Another Location

Airport or City:

Trip Planner

Search our weather history database for the weather conditions in past years. The results will help you decide how hot, cold, wet, or windy it might be!

Date:

Astronomy

Apr. 29, 2014 Rise Set
Actual Time 5:46 AM AST 6:32 PM AST
Civil Twilight 5:24 AM AST 6:55 PM AST
Nautical Twilight 4:57 AM AST 7:22 PM AST
Astronomical Twilight 4:30 AM AST 7:49 PM AST
Moon 6:00 AM AST (4/29) 7:06 PM AST (4/29)
Length of Visible Light 13h 31m
Length of Day
12h 46m
New Moon, 0% of the Moon is Illuminated
Apr 29
New Moon
May 6
First Quarter
May 14
Full
May 21
Last Quarter
May 28
New

Hourly Weather History & Observations

Time (AST) Temp. Heat Index Dew Point Humidity Pressure Visibility Wind Dir Wind Speed Gust Speed Precip Events Conditions
12:00 AM 78.8 °F - 69.8 °F 74% 30.01 in 6.2 mi East 9.2 mph - N/A   Scattered Clouds
1:00 AM 78.8 °F - 69.8 °F 74% 29.98 in 6.2 mi East 10.4 mph - N/A   Partly Cloudy
2:00 AM 79 °F - 69 °F 64% 29.98 in 19 mi East 8.1 mph - -   Scattered Clouds
2:00 AM 78.8 °F - 69.8 °F 74% 29.98 in 6.2 mi East 8.1 mph - N/A   Partly Cloudy
3:00 AM 78.8 °F - 69.8 °F 74% 29.95 in 6.2 mi East 8.1 mph - N/A   Scattered Clouds
4:00 AM 78.8 °F - 69.8 °F 74% 29.95 in 6.2 mi ESE 8.1 mph - N/A   Scattered Clouds
5:00 AM 79 °F - 69 °F 63% 29.98 in 19 mi ESE 8.1 mph - -   Scattered Clouds
5:00 AM 78.8 °F - 68.0 °F 69% 29.98 in 6.2 mi ESE 8.1 mph - N/A   Partly Cloudy
6:00 AM 78.8 °F - 69.8 °F 74% 30.01 in 6.2 mi East 8.1 mph - N/A   Partly Cloudy
7:00 AM 80.6 °F 83.9 °F 69.8 °F 70% 30.01 in 6.2 mi East 8.1 mph - N/A   Partly Cloudy
8:00 AM 81 °F - 69 °F 59% 30.05 in 19 mi ESE 11.5 mph - -   Scattered Clouds
8:00 AM 82.4 °F 86.3 °F 69.8 °F 66% 30.04 in 6.2 mi East 9.2 mph - N/A   Partly Cloudy
9:00 AM 82.4 °F 86.3 °F 69.8 °F 66% 30.04 in 6.2 mi ESE 10.4 mph - N/A   Scattered Clouds
10:00 AM 82.4 °F 87.2 °F 71.6 °F 70% 30.04 in 6.2 mi SE 10.4 mph - N/A   Mostly Cloudy
11:00 AM 82 °F - 71 °F 61% 30.06 in 22 mi SE 12.7 mph - -   Partly Cloudy
11:00 AM 82.4 °F 87.2 °F 71.6 °F 70% 30.04 in 6.2 mi SE 11.5 mph - N/A   Scattered Clouds
12:00 PM 82.4 °F 86.3 °F 69.8 °F 66% 30.04 in 6.2 mi SE 12.7 mph - N/A   Scattered Clouds
1:00 PM 84.2 °F 88.4 °F 69.8 °F 62% 30.01 in 6.2 mi SE 11.5 mph - N/A   Partly Cloudy
2:00 PM 84 °F - 70 °F 54% 30.01 in 40 mi SE 11.5 mph - -   Scattered Clouds
2:00 PM 84.2 °F 88.4 °F 69.8 °F 62% 30.01 in 6.2 mi SE 11.5 mph - N/A   Partly Cloudy
3:00 PM 82.4 °F 87.2 °F 71.6 °F 70% 29.98 in 6.2 mi SE 11.5 mph - N/A   Partly Cloudy
4:00 PM 84.2 °F 88.4 °F 69.8 °F 62% 29.98 in 6.2 mi ESE 9.2 mph - N/A   Partly Cloudy
5:00 PM 83 °F - 69 °F 55% 29.98 in 40 mi East 8.1 mph - -   Scattered Clouds
5:00 PM 82.4 °F 86.3 °F 69.8 °F 66% 29.98 in 6.2 mi East 8.1 mph - N/A   Partly Cloudy
6:00 PM 82.4 °F 86.3 °F 69.8 °F 66% 29.98 in 6.2 mi East 8.1 mph - N/A   Partly Cloudy
7:00 PM 80.6 °F 83.9 °F 69.8 °F 70% 29.98 in 6.2 mi East 9.2 mph - N/A   Partly Cloudy
8:00 PM 80 °F - 70 °F 63% 30.01 in 31 mi East 10.4 mph - -   Scattered Clouds
8:00 PM 80.6 °F 83.9 °F 69.8 °F 70% 30.01 in 6.2 mi East 10.4 mph - N/A   Partly Cloudy
9:00 PM 78.8 °F - 69.8 °F 74% 30.01 in 6.2 mi East 9.2 mph - N/A   Partly Cloudy
10:00 PM 78.8 °F - 69.8 °F 74% 30.04 in 6.2 mi East 10.4 mph - N/A   Partly Cloudy
11:00 PM 79 °F - 70 °F 67% 30.04 in 31 mi East 6.9 mph - -   Scattered Clouds
11:00 PM 78.8 °F - 69.8 °F 74% 30.04 in 6.2 mi East 10.4 mph - N/A   Partly Cloudy